CW5469 Weather Reports


time (UTC)temp
C
wind
direction
speed
KPH
gust
KPH
rain 1hr
cm
rain 24hr
cm
rain mn
cm
humidity
%
barometer
mb
20260505035953 1 0 0.0 0.0 0.00 0.30 0.30 95 1016.1
20260505034954 1 0 0.0 0.0 0.00 0.30 0.30 94 1016.2
20260505032954 1 0 0.0 0.0 0.00 0.30 0.30 94 1015.9
20260505031954 1 0 0.0 1.6 0.00 0.30 0.30 94 1015.9
20260505030953 1 0 0.0 4.8 0.00 0.30 0.30 94 1016.0
20260505025954 1 345 1.6 6.4 0.03 0.30 0.30 94 1015.7
20260505024953 1 0 0.0 4.8 0.03 0.30 0.30 94 1015.7
20260505023954 1 0 0.0 0.0 0.03 0.30 0.30 94 1015.6
20260505021954 1 0 0.0 4.8 0.10 0.30 0.30 94 1015.6
20260505020955 1 0 0.0 1.6 0.15 0.30 0.30 93 1015.5
20260505015954 1 344 1.6 6.4 0.20 0.28 0.28 93 1015.3
20260505013954 1 344 1.6 9.7 0.23 0.28 0.28 92 1015.6
20260505011954 1 335 8.0 20.9 0.15 0.20 0.20 89 1015.6
20260505010953 2 341 6.4 16.1 0.10 0.15 0.15 88 1015.3
20260505005954 3 335 8.0 22.5 0.03 0.08 0.08 81 1014.6
20260505004953 5 0 0.0 4.8 0.00 0.05 0.05 78 1014.5
20260505003955 5 0 0.0 0.0 0.00 0.05 0.05 79 1014.2
20260505002954 5 107 1.6 4.8 0.00 0.05 0.05 76 1014.4
20260505001954 5 127 1.6 8.0 0.00 0.05 0.05 77 1014.5
20260505000954 5 0 0.0 0.0 0.00 0.05 0.05 78 1014.6
20260504235954 5 123 3.2 11.3 0.00 0.05 0.05 80 1014.8
20260504234955 5 127 6.4 14.5 0.03 0.05 0.05 81 1014.8
20260504233954 5 124 6.4 12.9 0.05 0.05 0.05 83 1014.9
20260504232954 5 122 6.4 16.1 0.05 0.05 0.05 83 1014.9
20260504231954 5 10 4.8 11.3 0.05 0.05 0.05 83 1015.1
20260504225954 4 274 1.6 4.8 0.05 0.05 0.05 85 1015.3
20260504224954 5 227 8.0 14.5 0.03 0.03 0.03 79 1015.7
20260504222954 7 124 6.4 12.9 0.00 0.00 0.00 65 1015.4
20260504221954 7 141 4.8 9.7 0.00 0.00 0.00 64 1015.2
20260504215954 7 354 4.8 12.9 0.00 0.00 0.00 69 1015.7
20260504214954 5 271 4.8 14.5 0.00 0.00 0.00 75 1016.1
20260504213954 5 252 8.0 17.7 0.00 0.00 0.00 77 1016.2
20260504212954 5 244 11.3 22.5 0.00 0.00 0.00 76 1016.1
20260504211954 5 253 11.3 22.5 0.00 0.00 0.00 71 1015.8
20260504210954 7 263 14.5 35.4 0.00 0.00 0.00 60 1015.6
20260504205955 10 308 14.5 41.8 0.00 0.00 0.00 44 1014.9
20260504204954 11 318 6.4 14.5 0.00 0.00 0.00 33 1014.4
20260504203954 12 343 4.8 11.3 0.00 0.00 0.00 35 1014.3
20260504202954 11 1 9.7 20.9 0.00 0.00 0.00 42 1014.4
20260504201954 11 2 8.0 20.9 0.00 0.00 0.00 43 1014.6
20260504200954 10 48 9.7 24.1 0.00 0.00 0.00 46 1014.9
20260504195955 10 79 11.3 20.9 0.00 0.00 0.00 48 1015.1
20260504192954 11 1 9.7 24.1 0.00 0.00 0.00 49 1015.5
20260504191954 10 345 8.0 17.7 0.00 0.00 0.00 45 1015.9
20260504190954 10 345 8.0 17.7 0.00 0.00 0.00 43 1015.8
20260504185955 11 329 6.4 19.3 0.00 0.00 0.00 40 1015.9
20260504184954 10 333 6.4 12.9 0.00 0.00 0.00 42 1016.1
20260504183954 10 318 9.7 24.1 0.00 0.00 0.00 44 1016.2
20260504182954 9 353 12.9 25.7 0.00 0.00 0.00 46 1016.3
20260504180954 9 346 11.3 27.4 0.00 0.00 0.00 47 1016.5
20260504175954 10 358 14.5 30.6 0.00 0.00 0.00 48 1016.7
20260504174954 10 339 11.3 29.0 0.00 0.00 0.00 44 1016.6
20260504173953 11 344 9.7 29.0 0.00 0.00 0.00 43 1016.7
20260504172954 10 345 11.3 27.4 0.00 0.00 0.00 47 1016.9
20260504171954 10 340 9.7 20.9 0.00 0.00 0.00 50 1017.0
20260504170954 9 327 9.7 24.1 0.00 0.00 0.00 51 1017.1
20260504150954 7 356 6.4 16.1 0.00 0.00 0.00 52 1017.7
20260504140954 1 0 0.0 4.8 0.00 0.00 0.00 69 1017.9
20260504081954 -1 302 1.6 4.8 0.00 0.00 0.00 67 1017.8
20260504045953 3 0 0.0 0.0 0.00 0.00 0.00 53 1018.9
20260504044954 3 0 0.0 0.0 0.00 0.00 0.00 53 1019.0
20260504043954 3 0 0.0 0.0 0.00 0.00 0.00 53 1019.2
20260504042954 4 0 0.0 3.2 0.00 0.00 0.00 50 1019.2
20260504041955 4 302 1.6 3.2 0.00 0.00 0.00 49 1019.2